CW4549 Weather Reports


Display with metric or nautical units.
time (UTC)temp
F
wind
direction
speed
MPH
gust
MPH
rain 1hr
in
rain 24hr
in
rain mn
in
humidity
%
barometer
mb
20260506100017 45 0.0 2.0 0.00 0.53 0.27 100 1002.9
20260506094516 44 0.0 3.0 0.00 0.56 0.27 100 1002.8
20260506093016 45 0.0 2.0 0.00 0.57 0.27 100 1002.9
20260506091516 45 0.0 5.0 0.00 0.58 0.27 100 1003.0
20260506090017 45 0.0 7.0 0.00 0.58 0.27 100 1002.4
20260506084516 45 45 1.0 8.0 0.00 0.58 0.27 100 1002.1
20260506083016 45 45 1.0 8.0 0.00 0.58 0.27 100 1002.5
20260506081517 45 45 1.0 5.0 0.03 0.58 0.27 100 1002.2
20260506073056 48 23 1.0 10.0 0.08 0.58 0.27 100 1001.7
20260506071516 48 45 1.0 7.0 0.06 0.55 0.24 100 1002.0
20260506061516 49 45 1.0 7.0 0.10 0.49 0.18 100 1001.3
20260506044516 53 45 1.0 7.0 0.04 0.35 0.04 100 1000.7
20260506043016 54 45 1.0 6.0 0.04 0.35 0.04 100 1000.6
20260506041537 56 45 1.0 8.0 0.04 0.35 0.04 100 1000.4
20260506040016 60 0.0 5.0 0.00 0.31 0.00 100 1000.5
20260506034559 60 0.0 0.0 0.00 0.31 0.31 100 1000.0
20260506033040 60 0.0 2.0 0.00 0.31 0.31 100 1000.2
20260506031517 60 0.0 2.0 0.00 0.31 0.31 100 1000.2
20260506030017 60 0.0 1.0 0.00 0.31 0.31 100 1000.5
20260506024517 60 0.0 0.0 0.00 0.31 0.31 100 1000.8
20260506023017 60 0.0 0.0 0.01 0.31 0.31 100 1000.9
20260506021519 60 0.0 0.0 0.01 0.31 0.31 100 1001.2
20260506020019 60 0.0 0.0 0.02 0.31 0.31 100 1001.3
20260506014517 60 0.0 0.0 0.04 0.31 0.31 100 1001.1
20260506013017 60 0.0 0.0 0.05 0.30 0.30 100 1001.1
20260506011519 60 0.0 1.0 0.05 0.30 0.30 100 1000.9
20260506010039 61 0.0 0.0 0.04 0.29 0.29 100 1001.0
20260506004517 61 0.0 0.0 0.02 0.27 0.27 100 1001.2
20260506003017 61 0.0 0.0 0.01 0.25 0.25 100 1000.9
20260506001517 61 0.0 0.0 0.02 0.25 0.25 100 1000.6
20260506000017 61 0.0 0.0 0.02 0.25 0.25 100 1000.5
20260505234517 61 0.0 1.0 0.02 0.25 0.25 100 1000.4
20260505233057 62 0.0 2.0 0.01 0.24 0.24 100 1000.7
20260505231515 62 0.0 3.0 0.00 0.23 0.23 100 1001.2
20260505230016 62 0.0 2.0 0.00 0.23 0.23 100 1001.1
20260505224515 62 0.0 7.0 0.00 0.23 0.23 100 1001.1
20260505223017 62 180 1.0 7.0 0.00 0.23 0.23 100 1001.2
20260505221536 62 180 1.0 5.0 0.00 0.23 0.23 100 1001.5
20260505220015 62 0.0 3.0 0.01 0.23 0.23 100 1001.6
20260505214517 62 0.0 3.0 0.02 0.23 0.23 100 1001.9
20260505213015 62 158 1.0 5.0 0.02 0.23 0.23 99 1002.0
20260505211537 62 180 1.0 6.0 0.02 0.23 0.23 99 1001.9
20260505210015 62 158 1.0 6.0 0.03 0.22 0.22 99 1002.0
20260505204516 63 180 1.0 7.0 0.02 0.21 0.21 98 1002.0
20260505203016 63 158 1.0 7.0 0.05 0.21 0.21 97 1002.0
20260505201515 63 0.0 4.0 0.08 0.21 0.21 97 1002.1
20260505200036 63 0.0 3.0 0.08 0.19 0.19 95 1002.3
20260505194516 63 0.0 5.0 0.10 0.19 0.19 93 1002.5
20260505193017 64 0.0 4.0 0.07 0.16 0.16 90 1002.6
20260505191517 66 0.0 0.0 0.04 0.13 0.13 86 1003.1
20260505190018 67 180 1.0 5.0 0.02 0.11 0.11 79 1002.6
20260505184517 67 158 1.0 6.0 0.00 0.09 0.09 73 1002.3
20260505183017 68 180 2.0 13.0 0.00 0.09 0.09 71 1002.5
20260505181536 67 158 1.0 11.0 0.00 0.09 0.09 72 1002.6
20260505180015 67 180 2.0 11.0 0.00 0.09 0.09 71 1002.7
20260505174515 67 158 1.0 10.0 0.00 0.09 0.09 71 1002.8
20260505173017 67 158 1.0 11.0 0.00 0.09 0.09 72 1003.0
20260505171517 66 180 1.0 10.0 0.00 0.09 0.09 72 1003.1
20260505170036 66 158 2.0 8.0 0.00 0.09 0.09 72 1003.1
20260505164516 66 180 1.0 8.0 0.00 0.09 0.09 73 1003.1
20260505163016 66 180 1.0 6.0 0.00 0.09 0.09 73 1003.1
20260505161516 66 158 1.0 7.0 0.00 0.09 0.09 75 1003.1
20260505153016 66 158 1.0 7.0 0.00 0.09 0.09 78 1003.0
20260505151536 65 203 1.0 7.0 0.00 0.09 0.09 78 1002.8
20260505124516 59 180 1.0 5.0 0.00 0.09 0.09 100 1002.1
20260505123018 59 0.0 5.0 0.00 0.09 0.09 100 1002.5
20260505121516 59 0.0 3.0 0.00 0.09 0.09 100 1003.1
20260505120017 59 0.0 2.0 0.00 0.09 0.09 100 1003.1
20260505114516 58 0.0 1.0 0.00 0.09 0.09 100 1003.0
20260505113017 58 0.0 7.0 0.00 0.09 0.09 99 1002.8
20260505111517 58 0.0 2.0 0.00 0.09 0.09 99 1002.2
20260505101518 59 0.0 1.0 0.09 0.09 0.09 95 1003.1